FW7196 Weather Reports


time (UTC)temp
C
wind
direction
speed
KPH
gust
KPH
rain 1hr
cm
rain 24hr
cm
rain mn
cm
humidity
%
barometer
mb
20260902073040 15 0 0.0 0.0 0.00 0.79 0.03 96 1021.4
20260902071543 15 0 0.0 0.0 0.00 0.79 0.03 97 1021.2
20260902070047 15 0 0.0 0.0 0.00 0.79 0.03 97 1021.3
20260902064545 15 0 0.0 0.0 0.00 0.79 0.03 97 1021.3
20260902063043 15 0 0.0 0.0 0.03 0.79 0.03 97 1021.1
20260902061557 15 0 0.0 0.0 0.03 0.79 0.03 97 1021.0
20260902060055 15 0 0.0 0.0 0.03 0.79 0.03 97 1020.9
20260902054608 15 0 0.0 0.0 0.03 0.79 0.03 97 1020.8
20260902053100 15 0 0.0 0.0 0.00 0.76 0.00 96 1020.5
20260902051542 16 0 0.0 0.0 0.00 0.76 0.00 96 1020.4
20260902050042 16 0 0.0 0.0 0.00 0.76 0.00 96 1020.4
20260902044552 16 0 0.0 0.0 0.00 0.76 0.00 96 1020.2
20260902043046 16 0 0.0 0.0 0.00 0.76 0.00 96 1020.1
20260902041541 16 0 0.0 0.0 0.00 0.76 0.00 96 1020.0
20260902040048 16 0 0.0 0.0 0.00 0.76 0.00 96 1019.7
20260902034545 16 0 0.0 0.0 0.00 0.76 0.76 96 1019.7
20260902033044 16 0 0.0 0.0 0.00 0.76 0.76 96 1019.7
20260902031547 16 0 0.0 0.0 0.00 0.76 0.76 96 1019.6
20260902030042 16 0 0.0 3.2 0.00 0.76 0.76 96 1019.7
20260902024541 16 0 0.0 3.2 0.00 0.76 0.76 96 1019.6
20260902023047 16 0 0.0 1.6 0.00 0.76 0.76 96 1019.3
20260902023022 16 30 0.0 0.0 0.00 0.74 0.76 96 1019.2
20260902021542 16 0 0.0 0.0 0.00 0.76 0.76 96 1019.3
20260902020042 16 0 0.0 1.6 0.00 0.76 0.76 96 1019.4
20260902014540 16 0 0.0 0.0 0.00 0.76 0.76 96 1019.3
20260902013043 16 0 0.0 0.0 0.00 0.76 0.76 96 1019.3
20260902011545 16 0 0.0 0.0 0.00 0.76 0.76 96 1019.3
20260902010045 16 0 0.0 0.0 0.00 0.76 0.76 96 1019.5
20260902004543 16 0 0.0 0.0 0.00 0.76 0.76 96 1019.5
20260902003043 16 0 0.0 0.0 0.00 0.76 0.76 95 1019.2
20260902001556 16 0 0.0 0.0 0.00 0.76 0.76 95 1019.0
20260902000045 16 0 0.0 0.0 0.00 0.76 0.76 95 1018.7
20260901234541 16 0 0.0 0.0 0.00 0.76 0.76 95 1018.6
20260901233039 16 0 0.0 1.6 0.00 0.76 0.76 95 1018.5
20260901231548 17 0 0.0 0.0 0.00 0.76 0.76 94 1018.4
20260901230043 17 0 0.0 0.0 0.00 0.76 0.76 94 1018.5
20260901224545 17 0 0.0 0.0 0.00 0.76 0.76 94 1018.4
20260901223050 17 0 0.0 0.0 0.00 0.76 0.76 94 1018.6
20260901221556 17 0 0.0 0.0 0.00 0.76 0.76 93 1018.7
20260901220052 17 0 0.0 0.0 0.00 0.76 0.76 93 1018.5
20260901214551 17 0 0.0 1.6 0.00 0.76 0.76 93 1018.3
20260901213048 17 0 0.0 0.0 0.00 0.76 0.76 93 1018.2
20260901211544 18 0 0.0 0.0 0.00 0.76 0.76 93 1018.1
20260901210044 18 170 0.0 4.8 0.00 0.76 0.76 92 1018.2
20260901204549 18 0 0.0 1.6 0.00 0.76 0.76 92 1018.1
20260901203047 18 140 0.0 3.2 0.00 0.76 0.76 93 1017.8
20260901201543 18 0 0.0 0.0 0.00 0.76 0.76 94 1017.9
20260901200042 17 0 0.0 1.6 0.00 0.76 0.76 92 1018.0
20260901194545 18 0 0.0 0.0 0.00 0.76 0.76 93 1017.9
20260901193048 18 0 0.0 1.6 0.00 0.76 0.76 93 1017.8
20260901191600 18 0 0.0 0.0 0.00 0.76 0.76 94 1017.8
20260901190045 18 0 0.0 0.0 0.00 0.76 0.76 94 1018.0
20260901184547 17 0 0.0 3.2 0.00 0.76 0.76 93 1018.1
20260901183048 17 22 0.0 1.6 0.00 0.76 0.76 93 1018.1
20260901181547 17 0 0.0 3.2 0.00 0.76 0.76 94 1018.1
20260901180046 17 0 0.0 3.2 0.00 0.76 0.76 94 1018.0
20260901174548 17 0 0.0 0.0 0.00 0.76 0.76 96 1017.9
20260901173055 16 0 0.0 3.2 0.00 0.76 0.76 96 1017.7
20260901171556 16 0 0.0 1.6 0.00 0.76 0.76 96 1017.8
20260901170047 16 20 0.0 3.2 0.00 0.76 0.76 96 1017.8
20260901164546 16 0 0.0 3.2 0.00 0.76 0.76 96 1017.8
20260901163042 16 0 0.0 0.0 0.00 0.76 0.76 96 1017.6
20260901161605 15 0 0.0 1.6 0.00 0.76 0.76 96 1017.7
20260901160043 15 0 0.0 0.0 0.00 0.76 0.76 97 1018.0
20260901154553 15 0 0.0 0.0 0.00 0.76 0.76 96 1018.3
20260901153050 15 0 0.0 0.0 0.00 0.76 0.76 97 1018.2
20260901151542 15 0 0.0 1.6 0.00 0.76 0.76 96 1018.2
20260901150048 15 0 0.0 3.2 0.00 0.76 0.76 96 1018.4
20260901144549 15 0 0.0 1.6 0.00 0.76 0.76 96 1018.2
20260901143047 15 0 0.0 3.2 0.00 0.76 0.76 97 1017.9
20260901141548 14 0 0.0 3.2 0.03 0.76 0.76 97 1017.8
20260901140041 14 0 0.0 1.6 0.05 0.76 0.76 96 1017.9
20260901135325 15 81 0.0 0.0 0.00 0.74 0.76 96 1017.8
20260901134825 15 81 0.0 0.0 0.00 0.74 0.76 96 1017.8
20260901134545 14 0 0.0 3.2 0.10 0.76 0.76 96 1017.9
20260901134321 15 48 0.0 0.0 0.00 0.74 0.76 96 1018.0
20260901133809 15 19 0.0 0.0 0.00 0.74 0.76 97 1018.1
20260901133301 14 20 0.0 0.0 0.10 0.74 0.76 97 1018.1
20260901133046 14 37 0.0 3.2 0.15 0.76 0.76 97 1018.2
20260901132801 14 325 0.0 0.0 0.13 0.74 0.76 96 1018.0
20260901132259 14 325 0.0 0.0 0.13 0.74 0.76 96 1018.0
20260901131755 14 325 0.0 0.0 0.13 0.74 0.76 96 1018.1
20260901131546 13 0 0.0 1.6 0.20 0.74 0.74 96 1018.0
20260901131256 14 325 0.0 0.0 0.15 0.74 0.71 96 1017.9
20260901130058 13 37 0.0 3.2 0.33 0.71 0.71 96 1018.3
20260901124545 13 0 0.0 0.0 0.38 0.66 0.66 96 1018.2
20260901123043 13 0 0.0 0.0 0.36 0.58 0.58 96 1018.4
20260901121543 13 0 0.0 0.0 0.33 0.51 0.51 96 1018.7
20260901120041 13 0 0.0 0.0 0.28 0.38 0.38 95 1018.7
20260901115016 13 115 0.0 0.0 0.20 0.30 0.30 95 1018.6
20260901114608 13 0 0.0 0.0 0.28 0.28 0.28 95 1018.6
20260901113043 13 0 0.0 0.0 0.23 0.23 0.23 95 1018.7
20260901111547 13 0 0.0 0.0 0.18 0.18 0.18 95 1018.7
20260901110051 13 0 0.0 0.0 0.10 0.10 0.10 94 1018.4
20260901104543 13 0 0.0 0.0 0.00 0.00 0.00 94 1018.2
20260901103042 13 0 0.0 0.0 0.00 0.00 0.00 94 1018.1
20260901101543 13 0 0.0 0.0 0.00 0.00 0.00 94 1017.7
20260901100044 13 0 0.0 0.0 0.00 0.00 0.00 94 1017.9
20260901094544 13 0 0.0 0.0 0.00 0.00 0.00 94 1017.7
20260901093050 13 0 0.0 0.0 0.00 0.00 0.00 93 1017.6
20260901091545 13 0 0.0 0.0 0.00 0.00 0.00 93 1017.8
20260901090049 13 0 0.0 0.0 0.00 0.00 0.00 93 1017.7
20260901084548 13 0 0.0 0.0 0.00 0.00 0.00 93 1017.7
20260901083046 13 0 0.0 0.0 0.00 0.00 0.00 93 1017.6
20260901081545 13 0 0.0 0.0 0.00 0.00 0.00 93 1017.9
20260901080415 14 115 0.0 0.0 0.00 0.00 0.00 93 1017.9
20260901080049 13 0 0.0 0.0 0.00 0.00 0.00 93 1017.9
20260901074547 13 0 0.0 0.0 0.00 0.00 0.00 93 1017.8